"Pseudo-MPEC" for N00et3p

Created 2019 May 21 3:07:12 UT using Find_Orb

Click here for an explanation of pseudo-MPECs

 
 Astrometry: 
     N00et3p  S2019 05 12MJH:KkPqrHTtUW?oweKdh@+($I`]\Cr/HtJseTj7EfWV+-pRq9LAC51
     N00et3p  s2019 05 12PK[hb$`qZAyPDkRiWdycj,3v#LYGS^\AF;[Ao9Aoieav.`-[*9o'C51
     N00et3p  S2019 05 13pu)Ow6gY14tlRbE715L1dEKqUdu\4Kf=HV*'hVZJLvpc.+?4p)YAC51
     N00et3p  s2019 05 13T`vr53,`yIbU-DwLXv.FipQb+!EdByJsK:,W_Zcng-lmaJDg2j0)C51
     N00et3p  S2019 05 13vL4wqxtJ#mu=yRq^f4RSuD!\HE#[5gd19xcdP]4-PcJ)ovg[0si,C51
     N00et3p  s2019 05 13jB@5F!$g?j[qSE64/@w4Im0jN@c=[aIPIWU6QyKHRqJB+4(HeuX/C51
     N00et3p  S2019 05 13$xruYT](03+gBuAGAMEo#Ye+'*[99_l2ZK@qSP+^q'3jIZevxdF!C51
     N00et3p  s2019 05 13D1a%B?/[1A;\;giEr'qS:auSMjS)hDn4fgD!R?p4[]WZU^QcRle'C51
     N00et3p  S2019 05 13rr/=%8+D\S2@VWrvM`11qk@Uw)biIiAxY!jdEW\8h91gK)xCtRKHC51
     N00et3p  s2019 05 13:;q^Wl66m'Tlar$D1l7vd$GmVDAuwmwk.HO?:f/bGcT.\X,G$DChC51
     N00et3p KC2019 05 14D[YiW.@J+12S;QG[`/\#dD_v+`!O]C+(YdK6LE:10dK1f`KuvN9AH36
     N00et3p KC2019 05 1446LNkU2h`n!%s7Q+=(1'TBGnmCkB620L88qmJ:-r;2k-c85l$nHaH21
     N00et3p KC2019 05 149jw%T$=lOdqCLi_^5lVx^kDbD=ZmeA`/rf=P]cZZ#N$f9bwk!B6=H21
     N00et3p KC2019 05 14*44'S_hb2.YECPG#.u'Jbtg9fh[V+@jt^rMx:jdIGl1oJ?D+C,0yH21
     N00et3p  C2019 05 14.18422312 29 57.04 +42 26 28.9    ~5E57 20.8 GVNEOCPH01
     N00et3p  C2019 05 14.18831012 29 57.27 +42 26 26.8    ~5E57 20.8 GVNEOCPH01
     N00et3p  C2019 05 14.19908012 29 57.89 +42 26 21.1    ~5E57 20.6 GVNEOCPH01
     N00et3p  C2019 05 14.20551112 29 58.26 +42 26 17.6    ~5E57 20.4 GVNEOCPH01
     N00et3p KC2019 05 14Fx[^!l2__]2)G4S(\ymQ#fu//\it[5L7dq]vWV\nh?p#rR_LE6O1H36
     N00et3p ^C2019 05 15e8tG'H]puya9qE6(!LPikFFx+jwAs.af].G+EZE%tp$0RY6(#'OI695
     N00et3p ^C2019 05 15E'Ui%P=g7]J*0EHjD(n,(@)CF2FE9Uir,``wCdQMtQP?O2]DrfD8695
     N00et3p ^C2019 05 15*'5*9\P-Astrometry7sYw3?OV*]$Wgw-y[+rG)0+16$\@eMmEK6695
     N00et3p KC2019 05 16Zs[laXS:9^2:AwF,w61Y0P`#Oe]n?spredacted;l+l-dy#]4rX1H21
     N00et3p KC2019 05 16rebbPur\O0G2$g+NAQZg9xf;U#OM[;EF#avyYW5.g\@E#clickKMH21
     N00et3p KC2019 05 16DWaep_Q1;.:Bj/Bjg)A@cRUK?kloqkmN-YDld/asJ*=3LaU\@r4uH21
     N00et3p KC2019 05 16D-gjK6aq]j$p4J[x2.p%5vf6Q#V$7,HEs8pcSAFCE=2pR0\`2R?GH36
     N00et3p KC2019 05 16(_]3bn7T9yMQIj_k6(j-::_$vy6(r80XuD@C5NCOMJZQ:?v+Hf8'H36
     N00et3p KC2019 05 16RAW+1:$IJ\yHVB^+@32jm=_g9j5Z\+;4rt82xa74`9D)w)#dpm23H36
     N00et3p  S2019 05 17RyMvh-YsHGtA8asSRa:k,wii-_G?sTP,acZc1Z],LxZYPAMB'J1qC51
     N00et3p  s2019 05 17$08)ZV]dcDNw-9Wky]i3@/j6nMaMEr-]Ugn9+1]3.E?6YmrSo91vC51
     N00et3p  S2019 05 17T8vE3\f'Oq8f_1e?!EA59nh;08.uh=3dC2xYRY.$LOcL`NlbNgwAC51
     N00et3p  s2019 05 17[?6l1EA/_ApstP'R0;(qCt3qdlw))C;(eoDt3]o*VCZ8u6Hj?4m,C51
     N00et3p  S2019 05 17_/pR`T5*I=IawQxF5UjIm?9;025D%A]hliNF$2oA5g\2r[Y.j#1]C51
     N00et3p  s2019 05 17vKx,]g*b/B*!1XG6Ep1Z7HG/]ZqM])0YTb@7PJS_l]:Xo;Hn1YO'C51
     N00et3p  S2019 05 17v10)km2!@Wn%d-K!G)pQe'en)lD:eTwV!/2'OP\`DaJ+2KRvnm;uC51
     N00et3p  s2019 05 17X/$%-rjapbY2Ccb%I`fNkySwo)kD@O-x.:qxUARqe;cMtgh;;YnHC51
     N00et3p  S2019 05 17WcRYvw.^uxFn.AG%B2t+9or'dg;26rOhN.K=!3U!(cCOh?;cJ.2wC51
     N00et3p  s2019 05 17jP+b.W7P_Eo1qfPgXidaX)VuTda+.7#my2J6b051uR]a(c(:Sm!eC51
     N00et3p  S2019 05 17v1:*O!i^lmQkYV[A@p-oHjV*-8D`+y%(0s2`Nx@I)1(_F#Y=0N?TC51
     N00et3p  s2019 05 17^JbwH\H\d2UQr*SJJVT6^m\;MSLUsZ:CBkEyMm[ljCRtP#y,W5DJC51
     N00et3p  S2019 05 17K_Q%e-xF!uBF@AM4?nmbFA8#@x4/B9[(j`mQ89,3\RSWA4Ei[bjmC51
     N00et3p  s2019 05 17wy\,AuA#?'qq?d#,FV`X6[l[KMw;)xbQD3LsTP96G0/1g2wVD3k6C51
     N00et3p  S2019 05 17Ip=FeFxNM)L:VFH`_8-IHr6^ht(Uer$65%!6WOcaVW=%#;d@6.^uC51
     N00et3p  s2019 05 17v2WRQ*0g?5iUmrr.NO%*/(E'F=!6L_1HKCTMejFT3VG+(/4X4Ap[C51
     N00et3p  S2019 05 17#S-0g;diBO3i*Fy+,'o@9)84V6plm#y/vcvk(@4W-W;.V!:7p4QyC51
     N00et3p  s2019 05 17L?S)V$OI'(3WlcIt]]+kn!S$G;r[FK-fYjv]?yd2BnvEBY\M$PNWC51
     N00et3p  S2019 05 18TP$I9J(!jakfDeebgR^5N)Wae^f;3wI=VMtoQpA=aa[LIHXb7,kHC51
     N00et3p  s2019 05 18HW,hL?eP7AW17.g-)*Ijkhere*pn,OVw5E]3RK9qkib2s#.`ekjhC51
     N00et3p  S2019 05 18[5MR^3[n1ppVT)bYC4Jfv7gpnO0Yu!VjObNbCCMnm*QF5NZ`:WQ[C51
     N00et3p  s2019 05 18'ye7Y`8[p)d31L0.T$^S^[?VuPa1W`Pns6a.`DrsUy*Sb@kCMO_.C51
     N00et3p  S2019 05 18Ho]x0nUpD$forD4eROcKHr$,6WoVH8]QQkOx0w.Zv2$dwW9:\2`HC51
     N00et3p  s2019 05 18I=q%?ccJn.Jn7#X5191CqOtNi4d+FJ-oAYO:B8ek5_88MI18l(gfC51
     N00et3p  S2019 05 1810uo!FWpA6E\27G#8\=*O51RFIy(j?9UtiJu5[kVKk8^(9;tP2$%C51
     N00et3p  s2019 05 18GiWG8V*]vClp2E!x62#'$adW8nCqMk`*lS;vjkt\;`R`b*Pt.2RIC51
     N00et3p  S2019 05 18Pph$9kIP;-klw6fY+LeE4pub$-;M7e.*2su[sKPpBW`.jk5V6#LfC51
     N00et3p  s2019 05 18fPM[WeeE*QZ2l_cL0+*pnt)*,,VrL`Fa1b]0F5NZG@@dm*JQ%p!0C51
     N00et3p  S2019 05 18#-@u4[uuS`76p^%E'?8k2B;=w3CG4SJvM0.u+a6Cx,[#+S*KFP7BC51
     N00et3p  s2019 05 18kU?YRAm+kCXESAu9(16qq^#$h(Jrsm(fwZ-D?ShRxusM4!^J\Vu@C51
     N00et3p  S2019 05 183b;J[hqyq^P+ktKx#w8PJQcQ3s-,p!++i^::4F`bK^YN[K$`Q/#\C51
     N00et3p  s2019 05 18wvc*\CT7(_Z_wuS1u9NFxaN32RMc;P8L=wb:QyCkZ\h/5T*O\PMCC51
     N00et3p  S2019 05 18$:U0hr%rE5o-PF-M7A/ZPx4ZMJdTmhIHR7@W/mOT(D2k#9\DpN!^C51
     N00et3p  s2019 05 18.(.L7!:`#FwD#,k-;MQW`v4S3XV),Whn9P@PR46U43SktDxirP2LC51
     N00et3p  S2019 05 184e_lAiRR1latBmbYIvFVgt!f=sp=_BQJ\wFKOx6)DQ#gE?H;$]O%C51
     N00et3p  s2019 05 18#lRs0k;aw9bB:lL9D)iIZ74o!=O$0[wtMm5ijN+Gqy9w8]r),qHuC51
     N00et3p  S2019 05 18g#8\HQYv$2GK`,r1,e.x#5K)r1U@,BDE8ZGimxHt0oEJq6b6D:93C51
     N00et3p  s2019 05 18?C,QR]t$\f^^/R\1Ll'Kp]v,y2+mL3I$!+!O/8oHvXXj$K+t.'[aC51
     N00et3p  S2019 05 18mf.?^uBc9CHoL1-AY]3;j9s;xG#%(MHl-iJ;2rd9)qZ=.4P#$jvsC51
     N00et3p  s2019 05 18BDPHO)Ou6Qd:FQ21jo\$2k9cnq-kkOiuQIxZRMVBX@6XKHi;r@*qC51
     N00et3p  S2019 05 18YGePT0u^SKiWIJcexplanationv`.vfLy0Aq6;U-t#L%17Toj%9!C51
     N00et3p  s2019 05 18N=e$wKfw!S#cyKy:'`i^2HoI?n\2odO4iL9/I;b'oKZA$td=`Qe/C51
     N00et3p  S2019 05 19BNH$`h5,1aFAea]FV/QgTS,r9]]I]%Q`)l$L[d]w0Xbqb(%BYlvgC51
     N00et3p  s2019 05 19RnZ5R]M153o'kAbUX9fk!7-=sf_S26te*T68MH'`=bQ8$-pM;sdHC51
     N00et3p KC2019 05 207^hPk!fefKsfaenclTZT`rYmCQ@^J^a;vOlgP2,]Z]EEQb8_CFE;H21
     N00et3p KC2019 05 20Yl80fw[K^vG3hiUO48/q7UmCm;8M.Q]NNSfoUS7Dqls,+)Wv^4v+H21
     N00et3p KC2019 05 20*sRE2%-c=\k[51*jdBh64bvsE-p]AFB%@tK,T2oqn:R^K7NiYq%mH21

Station data:
(695) Kitt Peak  (N31.958398 W111.594670)  US/Arizona.
(C51) WISE. Measurers A. Mainzer, E. Wright, J. Bauer, T. Grav, J. Dailey, J.
   Masiero, R. Cutri, R. McMillan, R. Walker.
(H01) Magdalena Ridge Observatory, Socorro  (N33.984833 W107.189333)  US/New
   Mexico.  Observers W. H. Ryan, E. V. Ryan. Measurer W. H. Ryan. 2.4-m
   f/8.9 reflector + CCD.
(H21) Astronomical Research Observatory, Westfield  (N39.483057 W87.968270)
   US/Illinois. 0.76-m f/3.0 astrograph + CCD.
(H36) Sandlot Observatory, Scranton  (N38.797693 W95.706400)  US/Kansas.
   Observer G. Hug. 0.56-m reflector + CCD.

Orbital elements:  N00et3p
   Perihelion 2019 Jun 20.590163 +/- 0.244 TT = 14:09:50 (JD 2458655.090163)
Epoch 2019 May 20.0 TT = JDT 2458623.5   Earth MOID: 0.5929   AutoNEOCP
M 353.50345419 +/- 0.6              (J2000 ecliptic)
n   0.20565091 +/- 0.022            Peri.   98.38532 +/- 0.6
a   2.84259913 +/- 0.204            Node   137.99096 +/- 0.8
e   0.5016677 +/- 0.0329            Incl.   22.23060 +/- 0.22
P   4.79                   H 18.7   G  0.15   U 10.2  
q 1.41655890 +/- 0.01    Q 4.26863936 +/- 0.503
From 48 observations 2019 May 12-20; mean residual 0".72
Residuals in arcseconds: 
190512 C51  .87-  .13+    190515 695  .00   .26-    190518 C51  1.3-  1.4-    
190513 C51  .40-  .67+    190516 H21  .31-  .21+    190518 C51  1.3+  .61+    
190513 C51  .40-  .41-    190516 H21  .00   .07-    190518 C51  .90+  1.1+    
190513 C51  .79-  .56-    190516 H21  .15+  .31-    190518 C51  .82-  .88+    
190513 C51  .67-  .13-    190516 H36  .30+  .83+    190518 C51  .65-  .03+    
190514 H36  .28-  .10-    190516 H36  .32+  .48+    190518 C51  2.1-  2.7+    
190514 H21  .35-  .50-    190516 H36  .35+  .07+    190518 C51  1.4-  1.5+    
190514 H21  .65-  .04+    190517 C51  .07-  .14+    190518 C51  .01-  .39+    
190514 H21  .43-  .07-    190517 C51  .75-  .27-    190518 C51  .04+  .78-    
190514 H01  .40-  .25-    190517 C51  .17+  .43+    190518 C51  .10-  .01+    
190514 H01  .46-  .20-    190517 C51  .88+  .24-    190518 C51  .20-  .46-    
190514 H01  .46-  .21-    190517 C51  .15-  .08+    190518 C51  .30-  1.2+    
190514 H01  .46-  .30-    190517 C51  .93+  1.1-    190519 C51  .07+  .00     
190514 H36  3.2+  .69+    190517 C51  .63-  .15-    190520 H21  .21-  .24-    
190515 695  .00   .03+    190517 C51  .18-  .41+    190520 H21  .09+  .58-    
190515 695  .12+  .08+    190517 C51  .14+  .31-    190520 H21  .00   .09+    

Ephemerides (geocentric):
Date (UTC) HH   RA              Dec         delta   r     elong  mag " sig PA
---- -- -- --  -------------   -----------  ------ ------ -----  --- ---- ---
2019 05 21 03  12 38 06.371   +41 12 24.10  .81712 1.4502 104.4 20.7 1.34 124
2019 05 21 04  12 38 09.623   +41 11 52.66  .81720 1.4501 104.4 20.7 1.36 123
2019 05 21 05  12 38 12.878   +41 11 21.16  .81728 1.4500 104.4 20.7 1.38 123
2019 05 21 06  12 38 16.136   +41 10 49.61  .81736 1.4500 104.4 20.7 1.40 123
2019 05 21 07  12 38 19.398   +41 10 18.01  .81744 1.4499 104.3 20.7 1.42 123
2019 05 21 08  12 38 22.664   +41 09 46.34  .81752 1.4498 104.3 20.7 1.44 123
2019 05 21 09  12 38 25.933   +41 09 14.63  .81760 1.4497 104.3 20.7 1.46 123
2019 05 21 10  12 38 29.206   +41 08 42.86  .81768 1.4496 104.3 20.7 1.48 123
2019 05 21 11  12 38 32.483   +41 08 11.03  .81776 1.4495 104.3 20.7 1.50 123
2019 05 21 12  12 38 35.763   +41 07 39.14  .81783 1.4494 104.3 20.7 1.52 123
2019 05 21 13  12 38 39.046   +41 07 07.21  .81791 1.4493 104.2 20.7 1.55 122
2019 05 21 14  12 38 42.334   +41 06 35.21  .81799 1.4492 104.2 20.7 1.57 122
2019 05 21 15  12 38 45.624   +41 06 03.16  .81807 1.4492 104.2 20.7 1.59 122
2019 05 21 16  12 38 48.919   +41 05 31.06  .81815 1.4491 104.2 20.7 1.61 122
